Regional Weather Roundup
Issued by NWS Albany, NY

Home | Current Version | Previous Version | Text Only | Print | Product List | Glossary On
Versions: 1 2 3 4 5 6 7 8 9 10 11 12 13 14 15 16 17 18 19 20 21 22 23 24 25 26 27 28 29 30 31 32 33 34 35 36 37 38 39 40 41 42 43 44 45 46 47 48 49 50
000
ASUS41 KALY 210110
RWRALY

NEW YORK STATE HOURLY WEATHER ROUNDUP
NATIONAL WEATHER SERVICE ALBANY NY
900 PM EDT MON OCT 20 2014

NOTE: "FAIR" INDICATES FEW OR NO CLOUDS BELOW 12,000 FEET WITH NO
SIGNIFICANT WEATHER AND/OR NO OBSTRUCTIONS TO VISIBILITY.

NYZ032-033-038>043-046>054-057>066-NYZ062>081-210200-
EAST


CITY           SKY/WX    TMP DP  RH WIND       PRES   REMARKS
ALBANY         CLOUDY    50  38  63 S3        29.94S
GLENS FALLS    MOCLDY    49  36  61 CALM      29.94S
POUGHKEEPSIE   MOCLDY    51  38  60 SE5       29.97S
MONTGOMERY     PTCLDY    45  38  76 CALM      29.96S
WHITE PLAINS   PTCLDY    48  40  73 CALM      29.98S
ISLIP          MOCLDY    56  43  61 SW6       29.98S
NEW YORK CITY  MOCLDY    57  39  51 S6        29.98S
CENTRAL PARK   PTCLDY    56  40  55 VRB3      30.00F
$$

NYZ005>009-017-018-044>046-055-056-210200-
CENTRAL


CITY           SKY/WX    TMP DP  RH WIND       PRES   REMARKS
FULTON         CLOUDY    51  40  65 VRB3      29.86F
SYRACUSE       LGT RAIN  55  38  52 S5        29.87F
ROME           CLOUDY    50  40  68 E8        29.90F
ELMIRA         CLOUDY    50  42  74 NE3       29.89R
BINGHAMTON     CLOUDY    49  36  61 S6        29.90S
MONTICELLO     CLOUDY    45  37  76 E5        29.95F
$$

NYZ026>034-041>043-210200-
NORTH


CITY           SKY/WX    TMP DP  RH WIND       PRES   REMARKS
WATERTOWN      LGT RAIN  51  40  65 S3        29.86F
FORT DRUM      NOT AVBL
MASSENA        CLOUDY    44  43  96 E8        29.92S
SARANAC LAKE   CLOUDY    39  36  89 CALM      29.88S
PLATTSBURGH    CLOUDY    44  40  85 N3        29.93S
$$

NYZ001>004-010>016-019>021-210200-
WEST


CITY           SKY/WX    TMP DP  RH WIND       PRES   REMARKS
NIAGARA FALLS  LGT RAIN  52  49  89 SW7       29.81S
BUFFALO        CLOUDY    51  46  83 SW15      29.83S
DUNKIRK        LGT RAIN  52  46  80 SW7G22    29.83S
JAMESTOWN      CLOUDY    46  43  87 S9        29.85S
WELLSVILLE     LGT RAIN  48  41  76 S7        29.87F
ROCHESTER      LGT RAIN  50  47  89 S3        29.85R
PENN YAN       LGT RAIN  51  43  74 S7        29.87S
$$

             KEY
       WCI = WIND CHILL INDEX
       VSB = VISIBILITY
       HX  = HEAT INDEX
$$



USA.gov is the U.S. government's official web portal to all federal, state and local government web resources and services.